Regional Weather Roundup
Issued by NWS

Home | Current Version | Previous Version | Text Only | Print | Product List | Glossary Off
Versions: 1 2 3 4 5 6 7 8 9 10 11 12 13 14 15 16 17 18 19 20 21 22 23 24 25 26 27 28 29 30 31 32 33 34 35 36 37 38 39 40 41 42 43 44 45 46 47 48 49 50

000
ASUS43 KMPX 291210
RWRMN
WEATHER ROUNDUP FOR MINNESOTA
NATIONAL WEATHER SERVICE TWIN CITIES/CHANHASSEN MN
700 AM CDT TUE JUL 29 2014


NOTE: "FAIR" INDICATES FEW OR NO CLOUDS BELOW 12,000 FEET WITH NO
SIGNIFICANT WEATHER AND/OR OBSTRUCTIONS TO VISIBILITY. N/A MEANS
CURRENT SKY AND/OR WEATHER CONDITIONS ARE NOT AVAILABLE.

MNZ060>063-068>070-291300-
   Twin Cities Metro

CITY           SKY/WX    TMP DP  RH WIND       PRES   REMARKS
TWIN CITIES    PTCLDY    61  56  83 NW6       30.13S
6HR MIN TEMP:  59; 6HR MAX TEMP:  64;

ST PAUL        CLEAR     60  55  83 NW6       30.13R
CRYSTAL        PTCLDY    62  54  74 NW7       30.12R
BLAINE         CLEAR     61  57  88 CALM      30.13S
LAKEVILLE      CLEAR     57  55  94 W6        30.13S
EDEN PRAIRIE   CLEAR     61  55  81 W3        30.13R
6HR MIN TEMP:  59; 6HR MAX TEMP:  65;

SOUTH ST PAUL  CLEAR     62  55  76 NW5       30.13R
LAKE ELMO      FAIR      59  55  88 NW5       30.13R
$$
MNZ001>005-007-008-013>017-022>024-027-028-291300-
   Northwest Minnesota

CITY           SKY/WX    TMP DP  RH WIND       PRES   REMARKS
BEMIDJI        CLEAR     55  53  92 W6        30.16R
HALLOCK        CLEAR     54  52  94 CALM      30.17R
ROSEAU         CLEAR     55  52  88 W6        30.15S
WARROAD        CLEAR     55  52  88 W3        30.15R
THIEF RVR FALL CLEAR     55  54  94 CALM      30.17S
CROOKSTON      CLEAR     54  52  94 CALM      30.18S
FOSSTON        CLEAR     48  48 100 CALM      30.18S FOG
DETROIT LAKES  CLEAR     57  54  88 NW5       30.19S
MOORHEAD       CLEAR     54  54 100 CALM      30.19S
PARK RAPIDS    CLEAR     52  52 100 NW3       30.16S
$$
MNZ006-009>011-018-025>026-291300-
   North Central Minnesota

CITY           SKY/WX    TMP DP  RH WIND       PRES   REMARKS
BAUDETTE       CLEAR     58  55  90 W6        30.13S
FLAG ISLAND    CLEAR     61  55  82 NW9       30.11S
INTL FALLS     PTSUNNY   59  56  89 W6        30.09S
6HR MIN TEMP:  53; 6HR MAX TEMP:  59;

WASKISH        CLEAR     61  55  82 NW7       30.13S
BIG FORK       MOSUNNY   57  55  94 NW1       30.12S
LONGVILLE      CLEAR     61  57  88 NW5       30.14R
GRAND RAPIDS   SUNNY     57  54  88 CALM      30.12F
CRANE LAKE     SUNNY     50  50 100 CALM      30.09S
ORR            MOSUNNY   57  54  88 NW3       30.07S
COOK           SUNNY     54  52  94 W3        30.10R
$$
MNZ012-019>021-037-291300-
   Northeast Minnesota

CITY           SKY/WX    TMP DP  RH WIND       PRES   REMARKS
DULUTH         MOSUNNY   59  53  80 NW9       30.07F
6HR MIN TEMP:  53; 6HR MAX TEMP:  61;

ELY            MOSUNNY   55  54  94 W5        30.06F
HIBBING        CLOUDY    58  54  86 W7        30.10S
EVELETH        MOSUNNY   57  54  88 W8        30.09S
DULUTH HARBOR  SUNNY     64  55  72 SW9       30.07S
TWO HARBORS    MOSUNNY   57  50  77 NW5       30.04S
SILVER BAY     MOSUNNY   59  54  82 W5        30.03S
GRAND MARAIS     N/A     65  52  62 VRB3      30.00R
G MARAIS ARPRT MOSUNNY   55  48  76 NW7       30.04S
$$
MNZ029>031-032-039>041-046>048-054>057-064-291300-
   West Central Minnesota

CITY           SKY/WX    TMP DP  RH WIND       PRES   REMARKS
FERGUS FALLS   CLEAR     54  52  94 CALM      30.19S
WHEATON        CLEAR     54  52  94 W5        30.21S
MORRIS         CLEAR     52  52 100 W5        30.18S
ALEXANDRIA     CLEAR     59  55  87 NW5       30.19S
ELBOW LAKE     FAIR      52  52  99 CALM      30.18S
WADENA         CLEAR     54  54 100 CALM      30.16S
GLENWOOD       CLEAR     55  54  94 MISG      30.19R
APPLETON       CLEAR     54  52  94 W3        30.18S
BENSON         CLEAR     52  50  93 CALM      30.18S
ORTONVILLE     CLEAR     55  52  88 W3        30.19S
MADISON        CLEAR     54  52  94 NW3       30.19S
WILLMAR        FAIR      55  52  88 CALM      30.19S
$$
MNZ033>034-036-042>043-049>051-058-059-291300-
   Central Minnesota

CITY           SKY/WX    TMP DP  RH WIND       PRES   REMARKS
ST CLOUD       CLEAR     57  53  86 NW3       30.15R
6HR MIN TEMP:  56; 6HR MAX TEMP:  61;

SAUK CENTRE    FAIR      55  53  94 CALM      30.18R
PAYNESVILLE    CLEAR     50  50 100 SW5       30.18R FOG
AITKIN         CLEAR     57  52  82 CALM      30.12S
PINE RIVER     CLEAR     52  52 100 CALM      30.18R
BRAINERD       CLEAR     57  54  89 CALM      30.15R
STAPLES        CLEAR     54  52  94 W3        30.16S
LONG PRAIRIE   FAIR      55  54  94 NW3       30.17S
LITTLE FALLS   CLEAR     54  52  94 CALM      30.16R
LITCHFIELD     CLEAR     59  57  94 W6        30.17R
BUFFALO        CLEAR     60  53  77 W5        30.16R
MAPLE LAKE     CLEAR     60  55  82 W3        30.16R
$$
MNZ037-044-045-052-053-291300-
   East Central Minnesota

CITY           SKY/WX    TMP DP  RH WIND       PRES   REMARKS
PRINCETON        N/A     57  55  94 CALM      30.14R
MORA           SUNNY     54  54 100 CALM      30.14S
CAMBRIDGE      CLEAR     59  50  72 NW3       30.11S
RUSH CITY      MOSUNNY   55  54  94 CALM      30.11F
MOOSE LAKE     MOSUNNY   54  54 100 SW3       30.09S
HINCKLEY       FAIR      55  55 100 W3        30.11S
CLOQUET        SUNNY     55  54  94 W6        30.10S
MCGREGOR       SUNNY     55  55 100 NW5       30.12F
$$
MNZ071>073-080-081-089-090-097-098-291300-
   Southwest Minnesota

CITY           SKY/WX    TMP DP  RH WIND       PRES   REMARKS
MONTEVIDEO     CLEAR     54  54 100 NW5       30.19S
GRANITE FALLS  CLEAR     51  50  98 W5        30.20S
CANBY          CLEAR     55  52  88 W5        30.21R
MARSHALL       CLEAR     52  48  87 W6        30.19R
REDWOOD FALLS  CLEAR     55  52  89 NW7       30.17S
OLIVIA         CLEAR     54  52  94 NW5       30.17S
PIPESTONE      CLEAR     54  50  87 CALM      30.22R
WINDOM         CLEAR     54  52  94 W6        30.19S
WORTHINGTON    CLEAR     52  48  87 NW6       30.21R
JACKSON        CLEAR     54  50  87 NW5       30.20R
TRACY          CLEAR     56  51  86 W6        30.20S
SLAYTON        CLEAR     52  51  93 CALM      30.22R
$$
MNZ065>067-074>077-082>085-091>093-291300-
   South Central Minnesota

CITY           SKY/WX    TMP DP  RH WIND       PRES   REMARKS
MANKATO        CLEAR     55  50  82 W5        30.16R
NEW ULM        CLEAR     54  54 100 W5        30.17R
ST JAMES       CLEAR     55  52  88 W5        30.18S FOG
FAIRMONT       CLEAR     55  50  82 NW6       30.17S
GLENCOE        CLEAR     59  54  82 W6        30.15R
FARIBAULT      CLEAR     57  52  82 CALM      30.15R
OWATONNA       CLEAR     55  54  94 W5        30.15R
WASECA         CLEAR     50  46  87 CALM      30.16S
ALBERT LEA     CLEAR     55  54  94 CALM      30.15S
$$
MNZ078>079-086>088-094>096-291300-
   Southeast Minnesota

CITY           SKY/WX    TMP DP  RH WIND       PRES   REMARKS
ROCHESTER      CLEAR     57  53  86 NW7       30.15R
6HR MIN TEMP:  54; 6HR MAX TEMP:  57;

RED WING       SUNNY     55  54  94 CALM      30.11S FOG
STANTON        CLEAR     56  54  91 CALM      30.13R
DODGE CENTER   CLEAR     59  55  88 NW6       30.14R
WINONA         SUNNY     55  54  94 CALM      30.11R
AUSTIN         CLEAR     55  54  94 NW5       30.14R
PRESTON        SUNNY     56  56 100 NW5       30.14R
$$
ABBREVIATIONS USED IN REMARKS
   TC - TEMPERATURES IN CELSIUS
  WCI - WIND CHILL INDEX
   HX - HEAT INDEX
  VSB - VISIBILITY
$$


USA.gov is the U.S. government's official web portal to all federal, state and local government web resources and services.